Regional Weather Roundup
Issued by NWS

Home | Current Version | Previous Version | Graphics & Text | Print | Product List | Glossary On
Versions: 1 2 3 4 5 6 7 8 9 10 11 12 13 14 15 16 17 18 19 20 21 22 23 24 25 26 27 28 29 30 31 32 33 34 35 36 37 38 39 40 41 42 43 44 45 46 47 48 49 50
000
ASUS43 KLSX 240357
RWRMO

WEATHER SUMMARY FOR MISSOURI
NATIONAL WEATHER SERVICE SPRINGFIELD MO
1000 PM CST TUE JAN 23 2018

NOTE: "FAIR" INDICATES FEW OR NO CLOUDS BELOW 12,000 FEET WITH NO
       SIGNIFICANT WEATHER AND/OR OBSTRUCTIONS TO VISIBILITY.
       CURRENT SKY AND/OR WEATHER CONDITIONS ARE NOT AVAILABLE FOR
       CHILLICOTHE AND FARMINGTON.

MOZ001>031-035>038-043-044-053-054-240500-
...NORTHERN AND WESTERN MISSOURI...

CITY           SKY/WX    TMP DP  RH WIND       PRES   REMARKS
KANSAS CTY INT MOCLDY    27  24  89 SW3       30.24S
LEE`S SUMMIT   MOCLDY    29  25  85 W3        30.25R
ST JOSEPH      CLOUDY    29  28  96 CALM      30.26R
CHILLICOTHE      N/A     27  22  81 CALM      30.27R

$$
MOZ066>068-077>081-088>096-101>105-240500-
...SOUTHWEST MISSOURI...

CITY           SKY/WX    TMP DP  RH WIND       PRES   REMARKS
SPRINGFIELD    CLEAR     32  26  78 W5        30.26R WCI  27
JOPLIN         CLEAR     30  26  85 S5        30.30R WCI  25

$$
MOZ032>034-039>042-045>050-055>058-069>072-240500-
...CENTRAL MISSOURI...

CITY           SKY/WX    TMP DP  RH WIND       PRES   REMARKS
COLUMBIA       NOT AVBL
JEFFERSON CITY PTCLDY    31  25  78 CALM      30.27R
ROLLA          CLOUDY    29  26  89 W5        30.24R WCI  24
SEDALIA        CLEAR     28  26  92 NW3       30.26R
WARRENSBURG    MOCLDY    28  25  86 W3        30.26S

$$
MOZ051-052-059>065-240500-
...EAST CENTRAL MISSOURI...

CITY           SKY/WX    TMP DP  RH WIND       PRES   REMARKS
ST LOUIS INTL  CLOUDY    34  27  75 NW7       30.25R WCI  28

$$
MOZ072>076-082>087-097>100-106>115-240500-
...SOUTH CENTRAL AND SOUTHEAST MISSOURI...

CITY           SKY/WX    TMP DP  RH WIND       PRES   REMARKS
CAPE GIRARDEAU FAIR      32  27  81 W6        30.27R WCI  26
POPLAR BLUFF   FAIR      34  26  72 NW5       30.28R WCI  30
WEST PLAINS    CLEAR     30  25  81 W6        30.25S WCI  24

$$



USA.gov is the U.S. government's official web portal to all federal, state and local government web resources and services.